owner,sensor,date,latitude,longitude,vertical_datum,wind_speed,wind_to_direction,wind_speed_of_gust,qcFlag 
TCOON,ioos:station:TCOON:003:1,2009-08-01T00:00:00Z,26.8015,-97.4706,0.0,13.1,153.0,14.8,'11111222,11111222,11111222' 
TCOON,ioos:station:TCOON:003:1,2009-08-01T02:00:00Z,26.8015,-97.4706,0.0,10.4,156.0,12.1,'11111222,11111222,11111222' 
TCOON,ioos:station:TCOON:003:1,2009-08-01T03:00:00Z,26.8015,-97.4706,0.0,10.5,157.0,12.6,'11111222,11111222,11111222' 
TCOON,ioos:station:TCOON:003:1,2009-08-01T04:00:00Z,26.8015,-97.4706,0.0,12.1,168.0,14.4,'11111222,11111222,11111222' 
TCOON,ioos:station:TCOON:003:1,2009-08-01T05:00:00Z,26.8015,-97.4706,0.0,12.1,170.0,14.1,'11111222,11111222,11111222' 
TCOON,ioos:station:TCOON:003:1,2009-08-01T06:00:00Z,26.8015,-97.4706,0.0,11.7,186.0,13.4,'11111222,11111222,11111222' 
TCOON,ioos:station:TCOON:003:1,2009-08-01T07:00:00Z,26.8015,-97.4706,0.0,10.4,193.0,11.9,'11111222,11111222,11111222' 
TCOON,ioos:station:TCOON:003:1,2009-08-01T08:00:00Z,26.8015,-97.4706,0.0,10.3,190.0,11.6,'11111222,11111222,11111222' 
TCOON,ioos:station:TCOON:003:1,2009-08-01T09:00:00Z,26.8015,-97.4706,0.0,7.4,193.0,8.6,'11111222,11111222,11111222' 
TCOON,ioos:station:TCOON:003:1,2009-08-01T10:00:00Z,26.8015,-97.4706,0.0,5.8,194.0,6.9,'11111222,11111222,11111222' 
TCOON,ioos:station:TCOON:003:1,2009-08-01T11:00:00Z,26.8015,-97.4706,0.0,5.8,189.0,6.6,'11111222,11111222,11111222' 
TCOON,ioos:station:TCOON:003:1,2009-08-01T12:00:00Z,26.8015,-97.4706,0.0,9.2,182.0,10.9,'11111222,11111222,11111222' 
TCOON,ioos:station:TCOON:003:1,2009-08-01T13:00:00Z,26.8015,-97.4706,0.0,9.2,182.0,10.6,'11111222,11111222,11111222' 
TCOON,ioos:station:TCOON:003:1,2009-08-01T14:00:00Z,26.8015,-97.4706,0.0,10.3,175.0,12.0,'11111222,11111222,11111222' 
TCOON,ioos:station:TCOON:003:1,2009-08-01T15:00:00Z,26.8015,-97.4706,0.0,8.3,160.0,10.3,'11111222,11111222,11111222' 
TCOON,ioos:station:TCOON:003:1,2009-08-01T16:00:00Z,26.8015,-97.4706,0.0,10.5,161.0,12.5,'11111222,11111222,11111222' 
TCOON,ioos:station:TCOON:003:1,2009-08-01T17:00:00Z,26.8015,-97.4706,0.0,10.8,160.0,12.2,'11111222,11111222,11111222' 
TCOON,ioos:station:TCOON:003:1,2009-08-01T18:00:00Z,26.8015,-97.4706,0.0,10.8,163.0,12.2,'11111222,11111222,11111222' 
TCOON,ioos:station:TCOON:003:1,2009-08-01T19:00:00Z,26.8015,-97.4706,0.0,10.4,157.0,12.5,'11111222,11111222,11111222' 
TCOON,ioos:station:TCOON:003:1,2009-08-01T20:00:00Z,26.8015,-97.4706,0.0,10.8,154.0,12.7,'11111222,11111222,11111222' 
TCOON,ioos:station:TCOON:003:1,2009-08-01T21:00:00Z,26.8015,-97.4706,0.0,11.5,150.0,13.4,'11111222,11111222,11111222' 
TCOON,ioos:station:TCOON:003:1,2009-08-01T22:00:00Z,26.8015,-97.4706,0.0,12.1,152.0,14.3,'11111222,11111222,11111222' 
TCOON,ioos:station:TCOON:003:1,2009-08-01T23:00:00Z,26.8015,-97.4706,0.0,11.3,153.0,13.4,'11111222,11111222,11111222' 
TCOON,ioos:station:TCOON:003:1,2009-08-02T00:00:00Z,26.8015,-97.4706,0.0,9.5,155.0,11.6,'11111222,11111222,11111222' 
TCOON,ioos:station:TCOON:003:1,2009-08-02T01:00:00Z,26.8015,-97.4706,0.0,10.2,153.0,11.8,'11111222,11111222,11111222' 
TCOON,ioos:station:TCOON:003:1,2009-08-02T02:00:00Z,26.8015,-97.4706,0.0,8.1,148.0,9.6,'11111222,11111222,11111222' 
TCOON,ioos:station:TCOON:003:1,2009-08-02T03:00:00Z,26.8015,-97.4706,0.0,9.8,145.0,11.4,'11111222,11111222,11111222' 
TCOON,ioos:station:TCOON:003:1,2009-08-02T04:00:00Z,26.8015,-97.4706,0.0,8.9,159.0,10.5,'11111222,11111222,11111222' 
TCOON,ioos:station:TCOON:003:1,2009-08-02T05:00:00Z,26.8015,-97.4706,0.0,9.1,161.0,10.6,'11111222,11111222,11111222' 
TCOON,ioos:station:TCOON:003:1,2009-08-02T06:00:00Z,26.8015,-97.4706,0.0,7.7,163.0,10.0,'11111222,11111222,11111222' 
TCOON,ioos:station:TCOON:003:1,2009-08-02T07:00:00Z,26.8015,-97.4706,0.0,8.5,164.0,10.0,'11111222,11111222,11111222' 
TCOON,ioos:station:TCOON:003:1,2009-08-02T08:00:00Z,26.8015,-97.4706,0.0,8.5,166.0,9.7,'11111222,11111222,11111222' 
TCOON,ioos:station:TCOON:003:1,2009-08-02T09:00:00Z,26.8015,-97.4706,0.0,8.0,173.0,9.2,'11111222,11111222,11111222' 
TCOON,ioos:station:TCOON:003:1,2009-08-02T10:00:00Z,26.8015,-97.4706,0.0,5.5,192.0,7.0,'11111222,11111222,11111222' 
TCOON,ioos:station:TCOON:003:1,2009-08-02T11:00:00Z,26.8015,-97.4706,0.0,5.5,195.0,6.0,'11111222,11111222,11111222' 
TCOON,ioos:station:TCOON:003:1,2009-08-02T12:00:00Z,26.8015,-97.4706,0.0,6.2,191.0,7.6,'11111222,11111222,11111222' 
TCOON,ioos:station:TCOON:003:1,2009-08-02T13:00:00Z,26.8015,-97.4706,0.0,8.2,188.0,9.4,'11111222,11111222,11111222' 
TCOON,ioos:station:TCOON:003:1,2009-08-02T14:00:00Z,26.8015,-97.4706,0.0,7.4,173.0,8.6,'11111222,11111222,11111222' 
TCOON,ioos:station:TCOON:003:1,2009-08-02T15:00:00Z,26.8015,-97.4706,0.0,7.9,158.0,9.1,'11111222,11111222,11111222' 
TCOON,ioos:station:TCOON:003:1,2009-08-02T16:00:00Z,26.8015,-97.4706,0.0,7.4,157.0,8.3,'11111222,11111222,11111222' 
TCOON,ioos:station:TCOON:003:1,2009-08-02T17:00:00Z,26.8015,-97.4706,0.0,7.9,148.0,9.4,'11111222,11111222,11111222' 
TCOON,ioos:station:TCOON:003:1,2009-08-02T18:00:00Z,26.8015,-97.4706,0.0,10.0,144.0,11.4,'11111222,11111222,11111222' 
TCOON,ioos:station:TCOON:003:1,2009-08-02T19:00:00Z,26.8015,-97.4706,0.0,10.1,149.0,11.5,'11111222,11111222,11111222' 
TCOON,ioos:station:TCOON:003:1,2009-08-02T20:00:00Z,26.8015,-97.4706,0.0,9.3,137.0,11.1,'11111222,11111222,11111222' 
TCOON,ioos:station:TCOON:003:1,2009-08-02T21:00:00Z,26.8015,-97.4706,0.0,10.0,138.0,11.5,'11111222,11111222,11111222' 
TCOON,ioos:station:TCOON:003:1,2009-08-02T22:00:00Z,26.8015,-97.4706,0.0,9.1,147.0,10.7,'11111222,11111222,11111222' 
TCOON,ioos:station:TCOON:003:1,2009-08-02T23:00:00Z,26.8015,-97.4706,0.0,8.7,142.0,9.9,'11111222,11111222,11111222' 
TCOON,ioos:station:TCOON:003:1,2009-08-03T00:00:00Z,26.8015,-97.4706,0.0,8.2,146.0,10.1,'11111222,11111222,11111222' 
TCOON,ioos:station:TCOON:003:1,2009-08-03T01:00:00Z,26.8015,-97.4706,0.0,8.2,135.0,9.4,'11111222,11111222,11111222' 
TCOON,ioos:station:TCOON:003:1,2009-08-03T02:00:00Z,26.8015,-97.4706,0.0,6.8,146.0,8.0,'11111222,11111222,11111222' 
TCOON,ioos:station:TCOON:003:1,2009-08-03T03:00:00Z,26.8015,-97.4706,0.0,6.3,146.0,7.4,'11111222,11111222,11111222' 
TCOON,ioos:station:TCOON:003:1,2009-08-03T04:00:00Z,26.8015,-97.4706,0.0,5.9,145.0,6.6,'11111222,11111222,11111222' 
TCOON,ioos:station:TCOON:003:1,2009-08-03T05:00:00Z,26.8015,-97.4706,0.0,5.4,137.0,6.3,'11111222,11111222,11111222' 
TCOON,ioos:station:TCOON:003:1,2009-08-03T06:00:00Z,26.8015,-97.4706,0.0,5.2,146.0,6.6,'11111222,11111222,11111222' 
TCOON,ioos:station:TCOON:003:1,2009-08-03T07:00:00Z,26.8015,-97.4706,0.0,5.9,154.0,6.7,'11111222,11111222,11111222' 
TCOON,ioos:station:TCOON:003:1,2009-08-03T08:00:00Z,26.8015,-97.4706,0.0,4.5,145.0,5.4,'11111222,11111222,11111222' 
TCOON,ioos:station:TCOON:003:1,2009-08-03T09:00:00Z,26.8015,-97.4706,0.0,4.5,158.0,5.0,'11111222,11111222,11111222' 
TCOON,ioos:station:TCOON:003:1,2009-08-03T10:00:00Z,26.8015,-97.4706,0.0,5.0,165.0,5.8,'11111222,11111222,11111222' 
TCOON,ioos:station:TCOON:003:1,2009-08-03T11:00:00Z,26.8015,-97.4706,0.0,4.2,159.0,4.7,'11111222,11111222,11111222' 
TCOON,ioos:station:TCOON:003:1,2009-08-03T12:00:00Z,26.8015,-97.4706,0.0,2.5,201.0,2.9,'11111222,11111222,11111222' 
TCOON,ioos:station:TCOON:003:1,2009-08-03T13:00:00Z,26.8015,-97.4706,0.0,5.4,160.0,6.1,'11111222,11111222,11111222' 
TCOON,ioos:station:TCOON:003:1,2009-08-03T14:00:00Z,26.8015,-97.4706,0.0,5.7,160.0,6.4,'11111222,11111222,11111222' 
TCOON,ioos:station:TCOON:003:1,2009-08-03T15:00:00Z,26.8015,-97.4706,0.0,6.5,163.0,7.1,'11111222,11111222,11111222' 
TCOON,ioos:station:TCOON:003:1,2009-08-03T16:00:00Z,26.8015,-97.4706,0.0,6.8,162.0,7.3,'11111222,11111222,11111222' 
TCOON,ioos:station:TCOON:003:1,2009-08-03T17:00:00Z,26.8015,-97.4706,0.0,7.1,158.0,8.2,'11111222,11111222,11111222' 
TCOON,ioos:station:TCOON:003:1,2009-08-03T18:00:00Z,26.8015,-97.4706,0.0,8.4,135.0,10.4,'11111222,11111222,11111222' 
TCOON,ioos:station:TCOON:003:1,2009-08-03T19:00:00Z,26.8015,-97.4706,0.0,9.4,139.0,11.5,'11111222,11111222,11111222' 
TCOON,ioos:station:TCOON:003:1,2009-08-03T20:00:00Z,26.8015,-97.4706,0.0,10.7,144.0,13.0,'11111222,11111222,11111222' 
TCOON,ioos:station:TCOON:003:1,2009-08-03T21:00:00Z,26.8015,-97.4706,0.0,9.9,145.0,12.0,'11111222,11111222,11111222' 
TCOON,ioos:station:TCOON:003:1,2009-08-03T22:00:00Z,26.8015,-97.4706,0.0,10.4,149.0,11.9,'11111222,11111222,11111222' 
TCOON,ioos:station:TCOON:003:1,2009-08-03T23:00:00Z,26.8015,-97.4706,0.0,9.5,145.0,10.6,'11111222,11111222,11111222' 
TCOON,ioos:station:TCOON:003:1,2009-08-04T00:00:00Z,26.8015,-97.4706,0.0,8.9,151.0,10.5,'11111222,11111222,11111222' 
TCOON,ioos:station:TCOON:003:1,2009-08-04T01:00:00Z,26.8015,-97.4706,0.0,8.4,153.0,10.1,'11111222,11111222,11111222' 
TCOON,ioos:station:TCOON:003:1,2009-08-04T02:00:00Z,26.8015,-97.4706,0.0,6.9,144.0,8.4,'11111222,11111222,11111222' 
TCOON,ioos:station:TCOON:003:1,2009-08-04T03:00:00Z,26.8015,-97.4706,0.0,6.9,148.0,8.1,'11111222,11111222,11111222' 
TCOON,ioos:station:TCOON:003:1,2009-08-04T04:00:00Z,26.8015,-97.4706,0.0,6.7,143.0,7.8,'11111222,11111222,11111222' 
TCOON,ioos:station:TCOON:003:1,2009-08-04T05:00:00Z,26.8015,-97.4706,0.0,5.7,151.0,6.8,'11111222,11111222,11111222' 
TCOON,ioos:station:TCOON:003:1,2009-08-04T06:00:00Z,26.8015,-97.4706,0.0,4.9,152.0,5.8,'11111222,11111222,11111222' 
TCOON,ioos:station:TCOON:003:1,2009-08-04T07:00:00Z,26.8015,-97.4706,0.0,5.8,161.0,6.7,'11111222,11111222,11111222' 
TCOON,ioos:station:TCOON:003:1,2009-08-04T08:00:00Z,26.8015,-97.4706,0.0,7.3,162.0,8.3,'11111222,11111222,11111222' 
TCOON,ioos:station:TCOON:003:1,2009-08-04T09:00:00Z,26.8015,-97.4706,0.0,7.7,175.0,8.4,'11111222,11111222,11111222' 
TCOON,ioos:station:TCOON:003:1,2009-08-04T10:00:00Z,26.8015,-97.4706,0.0,7.7,173.0,9.1,'11111222,11111222,11111222' 
TCOON,ioos:station:TCOON:003:1,2009-08-04T11:00:00Z,26.8015,-97.4706,0.0,5.9,156.0,6.6,'11111222,11111222,11111222' 
TCOON,ioos:station:TCOON:003:1,2009-08-04T12:00:00Z,26.8015,-97.4706,0.0,4.6,144.0,5.9,'11111222,11111222,11111222' 
TCOON,ioos:station:TCOON:003:1,2009-08-04T13:00:00Z,26.8015,-97.4706,0.0,5.7,162.0,6.6,'11111222,11111222,11111222' 
TCOON,ioos:station:TCOON:003:1,2009-08-04T14:00:00Z,26.8015,-97.4706,0.0,6.6,159.0,7.4,'11111222,11111222,11111222' 
TCOON,ioos:station:TCOON:003:1,2009-08-04T15:00:00Z,26.8015,-97.4706,0.0,8.7,164.0,9.6,'11111222,11111222,11111222' 
TCOON,ioos:station:TCOON:003:1,2009-08-04T16:00:00Z,26.8015,-97.4706,0.0,8.0,167.0,8.8,'11111222,11111222,11111222' 
TCOON,ioos:station:TCOON:003:1,2009-08-04T17:00:00Z,26.8015,-97.4706,0.0,8.0,146.0,9.8,'11111222,11111222,11111222' 
TCOON,ioos:station:TCOON:003:1,2009-08-04T18:00:00Z,26.8015,-97.4706,0.0,10.8,144.0,12.1,'11111222,11111222,11111222' 
TCOON,ioos:station:TCOON:003:1,2009-08-04T19:00:00Z,26.8015,-97.4706,0.0,9.7,137.0,11.2,'11111222,11111222,11111222' 
TCOON,ioos:station:TCOON:003:1,2009-08-04T20:00:00Z,26.8015,-97.4706,0.0,9.6,138.0,11.0,'11111222,11111222,11111222' 
TCOON,ioos:station:TCOON:003:1,2009-08-04T21:00:00Z,26.8015,-97.4706,0.0,10.6,143.0,12.4,'11111222,11111222,11111222' 
TCOON,ioos:station:TCOON:003:1,2009-08-04T22:00:00Z,26.8015,-97.4706,0.0,11.2,147.0,12.7,'11111222,11111222,11111222' 
TCOON,ioos:station:TCOON:003:1,2009-08-04T23:00:00Z,26.8015,-97.4706,0.0,9.4,147.0,11.6,'11111222,11111222,11111222' 
TCOON,ioos:station:TCOON:003:1,2009-08-05T00:00:00Z,26.8015,-97.4706,0.0,9.5,155.0,10.6,'11111222,11111222,11111222' 
TCOON,ioos:station:TCOON:003:1,2009-08-05T01:00:00Z,26.8015,-97.4706,0.0,9.7,161.0,10.9,'11111222,11111222,11111222' 
TCOON,ioos:station:TCOON:003:1,2009-08-05T02:00:00Z,26.8015,-97.4706,0.0,7.8,162.0,8.9,'11111222,11111222,11111222' 
TCOON,ioos:station:TCOON:003:1,2009-08-05T03:00:00Z,26.8015,-97.4706,0.0,7.9,155.0,9.1,'11111222,11111222,11111222' 
TCOON,ioos:station:TCOON:003:1,2009-08-05T04:00:00Z,26.8015,-97.4706,0.0,6.9,161.0,7.8,'11111222,11111222,11111222' 
TCOON,ioos:station:TCOON:003:1,2009-08-05T05:00:00Z,26.8015,-97.4706,0.0,7.6,159.0,8.7,'11111222,11111222,11111222' 
TCOON,ioos:station:TCOON:003:1,2009-08-05T06:00:00Z,26.8015,-97.4706,0.0,8.0,160.0,9.4,'11111222,11111222,11111222' 
TCOON,ioos:station:TCOON:003:1,2009-08-05T07:00:00Z,26.8015,-97.4706,0.0,6.4,161.0,7.4,'11111222,11111222,11111222' 
TCOON,ioos:station:TCOON:003:1,2009-08-05T08:00:00Z,26.8015,-97.4706,0.0,5.0,203.0,5.7,'11111222,11111222,11111222' 
TCOON,ioos:station:TCOON:003:1,2009-08-05T09:00:00Z,26.8015,-97.4706,0.0,3.6,197.0,4.2,'11111222,11111222,11111222' 
TCOON,ioos:station:TCOON:003:1,2009-08-05T10:00:00Z,26.8015,-97.4706,0.0,5.6,175.0,7.2,'11111222,11111222,11111222' 
TCOON,ioos:station:TCOON:003:1,2009-08-05T11:00:00Z,26.8015,-97.4706,0.0,4.6,204.0,5.2,'11111222,11111222,11111222' 
TCOON,ioos:station:TCOON:003:1,2009-08-05T12:00:00Z,26.8015,-97.4706,0.0,3.8,145.0,4.5,'11111222,11111222,11111222' 
TCOON,ioos:station:TCOON:003:1,2009-08-05T13:00:00Z,26.8015,-97.4706,0.0,5.0,152.0,5.5,'11111222,11111222,11111222' 
TCOON,ioos:station:TCOON:003:1,2009-08-05T14:00:00Z,26.8015,-97.4706,0.0,6.3,164.0,7.1,'11111222,11111222,11111222' 
TCOON,ioos:station:TCOON:003:1,2009-08-05T15:00:00Z,26.8015,-97.4706,0.0,7.9,163.0,8.7,'11111222,11111222,11111222' 
TCOON,ioos:station:TCOON:003:1,2009-08-05T16:00:00Z,26.8015,-97.4706,0.0,6.0,162.0,7.0,'11111222,11111222,11111222' 
TCOON,ioos:station:TCOON:003:1,2009-08-05T17:00:00Z,26.8015,-97.4706,0.0,6.8,154.0,8.3,'11111222,11111222,11111222' 
TCOON,ioos:station:TCOON:003:1,2009-08-05T18:00:00Z,26.8015,-97.4706,0.0,6.7,138.0,8.2,'11111222,11111222,11111222' 
TCOON,ioos:station:TCOON:003:1,2009-08-05T19:00:00Z,26.8015,-97.4706,0.0,9.8,132.0,12.2,'11111222,11111222,11111222' 
TCOON,ioos:station:TCOON:003:1,2009-08-05T20:00:00Z,26.8015,-97.4706,0.0,10.1,127.0,12.7,'11111222,11111222,11111222' 
TCOON,ioos:station:TCOON:003:1,2009-08-05T21:00:00Z,26.8015,-97.4706,0.0,10.9,132.0,13.1,'11111222,11111222,11111222' 
TCOON,ioos:station:TCOON:003:1,2009-08-05T22:00:00Z,26.8015,-97.4706,0.0,10.3,138.0,12.3,'11111222,11111222,11111222' 
TCOON,ioos:station:TCOON:003:1,2009-08-05T23:00:00Z,26.8015,-97.4706,0.0,9.8,145.0,11.1,'11111222,11111222,11111222' 
TCOON,ioos:station:TCOON:003:1,2009-08-06T00:00:00Z,26.8015,-97.4706,0.0,9.9,147.0,11.6,'11111222,11111222,11111222' 
TCOON,ioos:station:TCOON:003:1,2009-08-06T01:00:00Z,26.8015,-97.4706,0.0,9.0,161.0,10.2,'11111222,11111222,11111222' 
TCOON,ioos:station:TCOON:003:1,2009-08-06T02:00:00Z,26.8015,-97.4706,0.0,9.3,156.0,10.6,'11111222,11111222,11111222' 
TCOON,ioos:station:TCOON:003:1,2009-08-06T03:00:00Z,26.8015,-97.4706,0.0,9.1,167.0,10.5,'11111222,11111222,11111222' 
TCOON,ioos:station:TCOON:003:1,2009-08-06T04:00:00Z,26.8015,-97.4706,0.0,10.6,178.0,11.8,'11111222,11111222,11111222' 
TCOON,ioos:station:TCOON:003:1,2009-08-06T05:00:00Z,26.8015,-97.4706,0.0,6.7,200.0,7.6,'11111222,11111222,11111222' 
TCOON,ioos:station:TCOON:003:1,2009-08-06T06:00:00Z,26.8015,-97.4706,0.0,5.5,203.0,6.4,'11111222,11111222,11111222' 
TCOON,ioos:station:TCOON:003:1,2009-08-06T07:00:00Z,26.8015,-97.4706,0.0,3.1,204.0,3.6,'11111222,11111222,11111222' 
TCOON,ioos:station:TCOON:003:1,2009-08-06T08:00:00Z,26.8015,-97.4706,0.0,2.4,219.0,2.6,'11111222,11111222,11111222' 
TCOON,ioos:station:TCOON:003:1,2009-08-06T09:00:00Z,26.8015,-97.4706,0.0,3.1,199.0,3.7,'11111222,11111222,11111222' 
TCOON,ioos:station:TCOON:003:1,2009-08-06T10:00:00Z,26.8015,-97.4706,0.0,2.3,211.0,2.7,'11111222,11111222,11111222' 
TCOON,ioos:station:TCOON:003:1,2009-08-06T11:00:00Z,26.8015,-97.4706,0.0,2.7,205.0,3.3,'11111222,11111222,11111222' 
TCOON,ioos:station:TCOON:003:1,2009-08-06T12:00:00Z,26.8015,-97.4706,0.0,3.1,180.0,3.8,'11111222,11111222,11111222' 
TCOON,ioos:station:TCOON:003:1,2009-08-06T13:00:00Z,26.8015,-97.4706,0.0,4.1,189.0,4.8,'11111222,11111222,11111222' 
TCOON,ioos:station:TCOON:003:1,2009-08-06T14:00:00Z,26.8015,-97.4706,0.0,3.9,147.0,4.6,'11111222,11111222,11111222' 
TCOON,ioos:station:TCOON:003:1,2009-08-06T15:00:00Z,26.8015,-97.4706,0.0,5.7,160.0,7.1,'11111222,11111222,11111222' 
TCOON,ioos:station:TCOON:003:1,2009-08-06T16:00:00Z,26.8015,-97.4706,0.0,4.3,161.0,4.7,'11111222,11111222,11111222' 
TCOON,ioos:station:TCOON:003:1,2009-08-06T17:00:00Z,26.8015,-97.4706,0.0,4.9,125.0,6.9,'11111222,11111222,11111222' 
TCOON,ioos:station:TCOON:003:1,2009-08-06T18:00:00Z,26.8015,-97.4706,0.0,7.5,133.0,9.1,'11111222,11111222,11111222' 
TCOON,ioos:station:TCOON:003:1,2009-08-06T19:00:00Z,26.8015,-97.4706,0.0,7.7,133.0,9.5,'11111222,11111222,11111222' 
TCOON,ioos:station:TCOON:003:1,2009-08-06T20:00:00Z,26.8015,-97.4706,0.0,8.7,142.0,9.6,'11111222,11111222,11111222' 
TCOON,ioos:station:TCOON:003:1,2009-08-06T21:00:00Z,26.8015,-97.4706,0.0,8.2,134.0,9.6,'11111222,11111222,11111222' 
TCOON,ioos:station:TCOON:003:1,2009-08-06T22:00:00Z,26.8015,-97.4706,0.0,10.1,123.0,11.9,'11111222,11111222,11111222' 
TCOON,ioos:station:TCOON:003:1,2009-08-06T23:00:00Z,26.8015,-97.4706,0.0,8.9,129.0,10.4,'11111222,11111222,11111222' 
TCOON,ioos:station:TCOON:003:1,2009-08-07T00:00:00Z,26.8015,-97.4706,0.0,9.2,131.0,10.7,'11111222,11111222,11111222' 
TCOON,ioos:station:TCOON:003:1,2009-08-07T01:00:00Z,26.8015,-97.4706,0.0,7.8,141.0,9.8,'11111222,11111222,11111222' 
TCOON,ioos:station:TCOON:003:1,2009-08-07T02:00:00Z,26.8015,-97.4706,0.0,7.7,145.0,8.8,'11111222,11111222,11111222' 
TCOON,ioos:station:TCOON:003:1,2009-08-07T03:00:00Z,26.8015,-97.4706,0.0,7.9,155.0,8.9,'11111222,11111222,11111222' 
TCOON,ioos:station:TCOON:003:1,2009-08-07T04:00:00Z,26.8015,-97.4706,0.0,7.7,154.0,8.7,'11111222,11111222,11111222' 
TCOON,ioos:station:TCOON:003:1,2009-08-07T05:00:00Z,26.8015,-97.4706,0.0,7.5,164.0,8.6,'11111222,11111222,11111222' 
TCOON,ioos:station:TCOON:003:1,2009-08-07T06:00:00Z,26.8015,-97.4706,0.0,7.4,159.0,8.2,'11111222,11111222,11111222' 
TCOON,ioos:station:TCOON:003:1,2009-08-07T07:00:00Z,26.8015,-97.4706,0.0,7.0,163.0,8.3,'11111222,11111222,11111222' 
TCOON,ioos:station:TCOON:003:1,2009-08-07T08:00:00Z,26.8015,-97.4706,0.0,5.9,170.0,7.3,'11111222,11111222,11111222' 
TCOON,ioos:station:TCOON:003:1,2009-08-07T09:00:00Z,26.8015,-97.4706,0.0,2.7,220.0,3.2,'11111222,11111222,11111222' 
TCOON,ioos:station:TCOON:003:1,2009-08-07T10:00:00Z,26.8015,-97.4706,0.0,3.9,212.0,4.3,'11111222,11111222,11111222' 
TCOON,ioos:station:TCOON:003:1,2009-08-07T11:00:00Z,26.8015,-97.4706,0.0,2.9,186.0,3.5,'11111222,11111222,11111222' 
TCOON,ioos:station:TCOON:003:1,2009-08-07T12:00:00Z,26.8015,-97.4706,0.0,2.1,183.0,2.5,'11111222,11111222,11111222' 
TCOON,ioos:station:TCOON:003:1,2009-08-07T13:00:00Z,26.8015,-97.4706,0.0,2.7,158.0,3.3,'11111222,11111222,11111222' 
TCOON,ioos:station:TCOON:003:1,2009-08-07T14:00:00Z,26.8015,-97.4706,0.0,4.9,157.0,5.8,'11111222,11111222,11111222' 
TCOON,ioos:station:TCOON:003:1,2009-08-07T15:00:00Z,26.8015,-97.4706,0.0,4.7,173.0,5.5,'11111222,11111222,11111222' 
TCOON,ioos:station:TCOON:003:1,2009-08-07T16:00:00Z,26.8015,-97.4706,0.0,4.5,157.0,5.1,'11111222,11111222,11111222' 
TCOON,ioos:station:TCOON:003:1,2009-08-07T17:00:00Z,26.8015,-97.4706,0.0,7.9,132.0,9.3,'11111222,11111222,11111222' 
TCOON,ioos:station:TCOON:003:1,2009-08-07T18:00:00Z,26.8015,-97.4706,0.0,8.5,132.0,10.8,'11111222,11111222,11111222' 
TCOON,ioos:station:TCOON:003:1,2009-08-07T19:00:00Z,26.8015,-97.4706,0.0,8.9,137.0,10.9,'11111222,11111222,11111222' 
TCOON,ioos:station:TCOON:003:1,2009-08-07T20:00:00Z,26.8015,-97.4706,0.0,8.7,134.0,10.5,'11111222,11111222,11111222' 
TCOON,ioos:station:TCOON:003:1,2009-08-07T21:00:00Z,26.8015,-97.4706,0.0,8.1,147.0,9.9,'11111222,11111222,11111222' 
TCOON,ioos:station:TCOON:003:1,2009-08-07T22:00:00Z,26.8015,-97.4706,0.0,8.5,143.0,9.9,'11111222,11111222,11111222' 
TCOON,ioos:station:TCOON:003:1,2009-08-07T23:00:00Z,26.8015,-97.4706,0.0,8.1,147.0,9.0,'11111222,11111222,11111222' 
TCOON,ioos:station:TCOON:003:1,2009-08-08T00:00:00Z,26.8015,-97.4706,0.0,7.1,140.0,8.6,'11111222,11111222,11111222' 
TCOON,ioos:station:TCOON:003:1,2009-08-08T01:00:00Z,26.8015,-97.4706,0.0,7.2,137.0,9.1,'11111222,11111222,11111222' 
TCOON,ioos:station:TCOON:003:1,2009-08-08T02:00:00Z,26.8015,-97.4706,0.0,7.1,140.0,8.6,'11111222,11111222,11111222' 
TCOON,ioos:station:TCOON:003:1,2009-08-08T03:00:00Z,26.8015,-97.4706,0.0,8.1,138.0,9.2,'11111222,11111222,11111222' 
TCOON,ioos:station:TCOON:003:1,2009-08-08T04:00:00Z,26.8015,-97.4706,0.0,7.0,146.0,7.9,'11111222,11111222,11111222' 
TCOON,ioos:station:TCOON:003:1,2009-08-08T05:00:00Z,26.8015,-97.4706,0.0,7.5,152.0,8.8,'11111222,11111222,11111222' 
TCOON,ioos:station:TCOON:003:1,2009-08-08T06:00:00Z,26.8015,-97.4706,0.0,7.0,161.0,8.1,'11111222,11111222,11111222' 
TCOON,ioos:station:TCOON:003:1,2009-08-08T07:00:00Z,26.8015,-97.4706,0.0,6.4,163.0,7.4,'11111222,11111222,11111222' 
TCOON,ioos:station:TCOON:003:1,2009-08-08T08:00:00Z,26.8015,-97.4706,0.0,6.1,170.0,7.6,'11111222,11111222,11111222' 
TCOON,ioos:station:TCOON:003:1,2009-08-08T09:00:00Z,26.8015,-97.4706,0.0,6.0,158.0,6.8,'11111222,11111222,11111222' 
TCOON,ioos:station:TCOON:003:1,2009-08-08T10:00:00Z,26.8015,-97.4706,0.0,4.6,146.0,5.0,'11111222,11111222,11111222' 
TCOON,ioos:station:TCOON:003:1,2009-08-08T11:00:00Z,26.8015,-97.4706,0.0,6.3,183.0,7.2,'11111222,11111222,11111222' 
TCOON,ioos:station:TCOON:003:1,2009-08-08T12:00:00Z,26.8015,-97.4706,0.0,4.3,162.0,5.3,'11111222,11111222,11111222' 
TCOON,ioos:station:TCOON:003:1,2009-08-08T13:00:00Z,26.8015,-97.4706,0.0,4.4,161.0,5.1,'11111222,11111222,11111222' 
TCOON,ioos:station:TCOON:003:1,2009-08-08T14:00:00Z,26.8015,-97.4706,0.0,6.4,163.0,7.1,'11111222,11111222,11111222' 
TCOON,ioos:station:TCOON:003:1,2009-08-08T15:00:00Z,26.8015,-97.4706,0.0,6.3,162.0,7.2,'11111222,11111222,11111222' 
TCOON,ioos:station:TCOON:003:1,2009-08-08T16:00:00Z,26.8015,-97.4706,0.0,6.8,170.0,7.7,'11111222,11111222,11111222' 
TCOON,ioos:station:TCOON:003:1,2009-08-08T17:00:00Z,26.8015,-97.4706,0.0,8.2,165.0,9.1,'11111222,11111222,11111222' 
TCOON,ioos:station:TCOON:003:1,2009-08-08T18:00:00Z,26.8015,-97.4706,0.0,7.1,156.0,8.7,'11111222,11111222,11111222' 
TCOON,ioos:station:TCOON:003:1,2009-08-08T19:00:00Z,26.8015,-97.4706,0.0,9.0,140.0,10.5,'11111222,11111222,11111222' 
TCOON,ioos:station:TCOON:003:1,2009-08-08T20:00:00Z,26.8015,-97.4706,0.0,10.6,139.0,12.6,'11111222,11111222,11111222' 
TCOON,ioos:station:TCOON:003:1,2009-08-08T21:00:00Z,26.8015,-97.4706,0.0,10.8,134.0,13.8,'11111222,11111222,11111222' 
TCOON,ioos:station:TCOON:003:1,2009-08-08T22:00:00Z,26.8015,-97.4706,0.0,10.7,137.0,13.1,'11111222,11111222,11111222' 
TCOON,ioos:station:TCOON:003:1,2009-08-08T23:00:00Z,26.8015,-97.4706,0.0,9.4,137.0,11.2,'11111222,11111222,11111222' 
TCOON,ioos:station:TCOON:003:1,2009-08-09T00:00:00Z,26.8015,-97.4706,0.0,9.9,144.0,12.5,'11111222,11111222,11111222' 
TCOON,ioos:station:TCOON:003:1,2009-08-09T01:00:00Z,26.8015,-97.4706,0.0,10.1,149.0,12.4,'11111222,11111222,11111222' 
TCOON,ioos:station:TCOON:003:1,2009-08-09T02:00:00Z,26.8015,-97.4706,0.0,8.6,147.0,10.3,'11111222,11111222,11111222' 
TCOON,ioos:station:TCOON:003:1,2009-08-09T03:00:00Z,26.8015,-97.4706,0.0,8.4,151.0,9.8,'11111222,11111222,11111222' 
TCOON,ioos:station:TCOON:003:1,2009-08-09T04:00:00Z,26.8015,-97.4706,0.0,9.0,156.0,10.3,'11111222,11111222,11111222' 
TCOON,ioos:station:TCOON:003:1,2009-08-09T05:00:00Z,26.8015,-97.4706,0.0,9.2,159.0,10.6,'11111222,11111222,11111222' 
TCOON,ioos:station:TCOON:003:1,2009-08-09T06:00:00Z,26.8015,-97.4706,0.0,8.1,165.0,9.8,'11111222,11111222,11111222' 
TCOON,ioos:station:TCOON:003:1,2009-08-09T07:00:00Z,26.8015,-97.4706,0.0,8.6,164.0,10.3,'11111222,11111222,11111222' 
TCOON,ioos:station:TCOON:003:1,2009-08-09T08:00:00Z,26.8015,-97.4706,0.0,7.9,164.0,10.9,'11111222,11111222,11111222' 
TCOON,ioos:station:TCOON:003:1,2009-08-09T09:00:00Z,26.8015,-97.4706,0.0,9.2,167.0,10.5,'11111222,11111222,11111222' 
TCOON,ioos:station:TCOON:003:1,2009-08-09T10:00:00Z,26.8015,-97.4706,0.0,7.2,167.0,8.2,'11111222,11111222,11111222' 
TCOON,ioos:station:TCOON:003:1,2009-08-09T11:00:00Z,26.8015,-97.4706,0.0,7.2,165.0,9.0,'11111222,11111222,11111222' 